Wind_Speed
12 12 12 12 11 11 11 11 12 13 13 13 13 13 13 13 13 13 13 14 14 15 16 16 16 16 16 16 17 17 18 19 19 18 19 19 19 19 20 20 20 19 19
13 13 12 12 13 13 13 14 13 13 13 13 14 14 14 15 15 15 15 15 16 17 17 17 17 17 17 17 18 19 19 20 21 20 20 20 21 21 21 21 21 21 20
14 13 13 13 14 14 15 15 14 14 14 14 15 15 16 16 17 16 16 16 17 17 17 16 17 18 18 19 19 20 21 21 21 22 22 22 22 22 22 22 22 22 22
15 15 14 15 15 15 15 15 15 15 14 15 15 16 16 17 17 17 17 17 17 17 18 18 19 19 20 20 21 22 22 23 23 23 22 22 22 23 22 22 23 23 22
17 17 17 16 16 17 16 16 16 15 15 15 16 16 17 17 17 18 19 19 19 19 19 20 20 21 22 22 23 23 24 24 24 23 23 24 23 24 23 23 23 23 23
18 18 18 18 18 18 18 17 17 17 17 16 16 17 18 18 19 19 19 20 20 21 21 21 22 23 23 23 24 25 25 24 24 23 24 24 24 25 25 24 24 23 23
19 19 19 19 19 20 19 18 18 18 18 18 18 18 19 19 20 20 21 22 22 22 22 22 22 23 24 24 25 25 25 24 23 23 24 24 24 24 24 24 23 23 22
19 19 19 20 21 21 20 20 19 19 19 19 19 19 19 20 20 21 22 23 23 23 23 23 23 23 24 24 24 25 25 24 23 24 24 24 24 24 24 23 23 23 23
21 21 22 22 22 22 21 21 21 21 20 20 20 20 21 21 22 22 23 24 24 24 24 25 25 24 24 24 24 24 24 23 23 23 23 23 24 23 23 23 23 22 22
22 22 22 23 23 23 23 22 21 22 21 22 22 22 22 22 23 23 24 24 25 25 26 26 25 25 25 25 24 24 23 23 23 23 24 24 24 24 24 24 23 22 22
22 23 23 24 24 24 24 23 23 23 23 22 22 22 23 23 24 24 24 24 24 25 26 26 25 25 24 22 22 22 22 22 23 23 23 24 24 24 24 24 23 23 23
22 23 24 24 24 24 23 24 24 24 23 22 23 23 24 25 25 25 25 25 25 25 25 26 25 24 22 21 21 21 22 23 23 23 23 23 23 23 23 23 24 23 23
23 24 24 25 25 24 24 24 24 24 24 24 25 25 25 25 25 25 26 26 25 25 26 26 25 23 22 21 21 22 23 23 23 23 23 23 24 23 23 23 23 24 24
24 24 25 26 26 26 25 25 25 26 26 26 26 26 25 25 25 25 26 25 25 25 26 25 24 23 22 22 22 22 23 23 24 24 24 24 25 24 24 24 24 24 24
26 26 26 26 26 26 26 26 26 26 27 27 26 25 25 25 25 26 26 26 26 25 25 25 24 23 23 23 23 23 24 25 25 25 25 25 25 25 25 24 24 25 25
28 29 28 28 28 28 28 27 26 27 27 26 26 25 25 25 25 26 26 26 26 26 26 26 25 25 25 24 24 24 25 25 25 25 25 25 25 25 25 24 24 25 25
30 30 30 30 29 29 29 28 28 27 27 27 26 26 26 27 26 26 26 27 27 27 27 26 25 24 24 24 24 24 25 25 25 25 25 25 26 25 24 24 24 24 25
31 31 31 31 30 29 29 28 27 26 26 27 27 28 28 27 27 26 27 28 28 27 27 25 24 24 24 24 24 24 25 26 26 26 26 26 26 25 24 24 24 25 25
33 32 31 32 31 30 29 29 28 28 28 28 29 29 28 27 26 26 27 28 27 27 26 25 24 24 23 23 24 25 25 26 26 26 26 26 26 25 25 25 25 25 25
32 32 32 31 30 29 30 29 29 30 30 30 29 28 28 27 27 27 27 28 27 25 24 24 23 23 23 24 25 25 26 26 26 26 26 27 26 26 26 25 25 26 26
32 32 32 31 30 29 29 30 29 30 30 30 29 28 28 28 27 26 27 27 26 25 25 24 24 24 24 25 25 26 26 26 26 26 26 27 27 26 26 26 26 26 26
32 31 31 31 31 30 30 30 30 30 29 29 29 28 27 27 27 27 27 27 26 26 25 25 25 25 24 24 25 26 26 26 27 27 27 27 27 26 26 26 26 26 26
32 32 32 32 31 30 30 30 30 29 29 29 29 28 28 27 27 27 27 26 26 26 26 26 26 26 26 26 26 27 27 27 27 27 27 27 27 27 26 26 26 26 26
32 32 32 31 31 31 30 30 29 29 29 29 29 30 29 28 28 28 27 27 27 26 26 26 26 26 26 27 27 27 27 27 26 26 27 26 26 26 26 26 26 25 25
31 31 32 32 31 30 30 30 30 30 30 29 29 29 29 28 28 28 27 27 26 26 26 26 26 26 27 27 27 27 26 26 26 26 26 26 26 26 26 25 25 25 25
30 30 31 30 30 30 30 30 31 30 29 29 29 28 28 27 27 26 26 26 26 26 26 26 26 27 27 27 27 27 27 27 27 27 27 27 27 27 26 26 26 25 25
Wind_Direction
281 281 281 284 285 290 293 293 295 297 296 294 293 295 293 294 298 299 300 300 296 294 294 294 295 297 298 297 298 298 298 298 296 294 293 294 294 294 292 293 294 293 289
279 279 279 287 290 291 292 296 296 296 296 293 291 292 292 292 294 295 296 297 296 293 293 293 294 295 297 297 298 298 298 297 295 293 292 292 291 291 291 291 292 291 289
277 280 280 282 285 288 292 293 295 296 297 296 294 292 291 291 291 292 293 294 296 295 293 293 294 295 296 295 296 297 297 297 295 292 290 291 291 291 291 290 291 290 287
276 277 279 282 283 285 289 292 295 295 294 294 295 293 289 288 289 290 291 292 295 296 294 294 295 296 296 295 295 295 295 295 294 293 291 290 290 290 290 289 290 290 288
271 271 273 278 282 286 287 289 291 293 292 294 296 293 292 290 290 291 292 292 293 293 293 293 295 296 295 294 294 294 294 294 294 292 291 290 289 288 288 288 288 288 287
269 269 270 275 279 283 284 284 286 287 286 288 292 293 294 294 294 294 293 293 293 293 293 292 294 295 296 297 295 295 294 294 293 292 292 291 289 288 287 286 287 286 285
268 270 269 271 277 280 280 280 282 283 283 285 287 289 292 293 293 292 293 292 291 291 291 290 293 296 296 297 296 297 297 296 293 293 293 292 289 288 286 286 286 284 283
266 270 271 275 279 280 280 279 278 279 281 284 286 289 291 293 293 292 293 292 292 292 291 290 292 295 297 300 301 299 297 296 295 294 293 292 290 289 287 286 285 284 282
266 270 274 277 278 279 280 278 278 278 280 282 284 287 290 293 293 291 292 293 293 293 291 291 291 294 295 298 300 299 296 295 297 296 294 292 291 289 289 288 287 285 283
267 270 272 274 276 276 277 277 277 277 279 282 285 287 289 292 293 293 292 292 292 291 290 292 292 293 294 295 298 300 298 297 297 295 294 293 291 289 288 287 287 286 284
269 270 272 274 276 276 275 275 274 276 278 281 286 288 291 291 292 294 293 291 292 291 290 291 292 294 295 295 297 300 301 300 299 296 295 293 292 289 287 285 285 285 285
268 269 272 275 276 276 276 276 275 275 276 280 284 288 291 294 293 293 293 293 293 294 294 292 291 292 294 296 299 302 302 301 300 299 296 295 294 292 290 287 286 285 285
267 268 270 273 274 275 274 275 275 276 278 280 283 286 289 292 294 294 293 293 294 294 295 293 292 293 297 296 297 299 300 301 301 300 298 296 295 294 292 290 288 287 286
266 268 269 271 273 274 273 273 274 276 278 280 282 284 287 291 293 294 293 295 295 293 293 294 292 292 295 295 296 297 298 298 299 298 298 296 295 294 291 289 288 287 286
266 268 270 271 271 272 271 272 273 275 278 280 280 283 287 290 291 293 294 295 295 295 294 295 294 293 295 294 294 295 295 295 296 297 298 298 297 294 290 287 287 287 286
266 266 268 269 271 272 271 272 273 274 277 278 281 284 286 288 290 293 294 294 296 296 296 294 292 293 294 296 295 295 295 295 295 297 297 297 296 295 292 288 287 287 287
264 265 267 266 267 269 270 270 273 274 275 278 280 283 286 288 288 289 292 294 294 295 295 293 292 292 292 293 295 296 295 295 294 296 297 297 297 295 294 291 288 287 287
263 263 264 265 265 267 268 270 273 275 276 278 280 282 285 287 287 287 291 293 293 294 294 292 291 291 292 292 294 295 295 295 295 296 297 298 298 297 295 293 291 289 288
264 266 265 265 267 269 270 271 271 273 275 277 278 281 283 286 288 289 291 291 291 292 291 290 290 291 291 291 293 294 295 296 296 297 298 298 297 296 295 294 293 291 289
266 268 270 269 267 270 271 271 272 274 275 277 277 279 282 286 289 290 290 291 292 290 289 289 290 290 290 291 292 294 296 297 297 297 297 297 297 295 295 294 292 292 290
265 266 269 269 268 270 271 272 274 275 275 276 276 279 282 285 288 289 289 289 289 288 287 288 289 289 290 291 292 293 295 297 298 298 297 297 296 295 294 294 293 292 290
265 266 268 269 268 268 269 271 273 274 275 276 277 279 282 284 286 288 289 289 288 288 286 286 286 287 288 290 291 294 297 297 299 299 298 297 296 295 294 294 293 291 290
264 266 266 268 267 267 268 270 272 273 275 277 278 279 282 283 283 285 287 287 286 286 284 284 285 285 287 288 291 293 295 296 298 298 298 298 296 294 293 293 292 292 290
263 264 265 266 266 267 268 269 271 272 275 277 279 280 279 279 281 283 284 286 286 286 285 285 285 285 287 289 291 293 294 295 297 299 300 298 296 295 294 293 292 292 290
262 264 265 266 266 266 267 268 270 272 274 275 276 278 278 278 280 281 282 284 285 285 285 284 284 286 288 289 291 293 295 296 298 300 301 299 297 297 295 294 293 292 290
262 265 266 266 266 267 268 269 270 271 271 272 274 277 278 278 278 279 281 283 284 284 285 285 286 288 290 290 291 292 294 295 296 298 300 299 297 297 295 294 294 294 292
Height
5895 5894 5894 5893 5893 5892 5890 5889 5888 5887 5886 5885 5884 5883 5881 5880 5879 5878 5877 5875 5874 5872 5871 5870 5868 5866 5865 5863 5861 5860 5858 5856 5854 5852 5850 5849 5847 5845 5843 5841 5840 5838 5836
5891 5889 5889 5889 5888 5888 5887 5885 5884 5883 5882 5881 5880 5879 5877 5876 5875 5874 5872 5871 5869 5867 5866 5865 5863 5861 5860 5858 5856 5854 5852 5850 5848 5846 5844 5843 5841 5839 5837 5835 5834 5832 5830
5886 5886 5885 5885 5884 5883 5882 5881 5880 5879 5878 5876 5875 5874 5873 5871 5870 5869 5868 5866 5864 5863 5861 5859 5858 5856 5855 5853 5851 5848 5846 5844 5842 5840 5838 5836 5834 5832 5830 5828 5827 5825 5824
5882 5881 5881 5880 5879 5879 5878 5877 5875 5874 5873 5872 5870 5869 5868 5866 5865 5864 5863 5861 5859 5858 5856 5854 5852 5851 5849 5847 5845 5842 5840 5838 5836 5834 5832 5830 5828 5825 5824 5822 5820 5819 5817
5877 5877 5876 5876 5875 5874 5873 5872 5871 5870 5868 5867 5866 5864 5863 5861 5860 5859 5857 5856 5854 5852 5850 5849 5847 5845 5842 5840 5838 5836 5833 5831 5829 5827 5825 5823 5821 5819 5817 5815 5814 5812 5811
5872 5871 5871 5870 5870 5869 5868 5867 5866 5865 5863 5862 5861 5860 5858 5856 5855 5853 5852 5850 5848 5846 5844 5842 5840 5838 5836 5834 5831 5829 5826 5824 5822 5820 5818 5816 5814 5812 5811 5809 5807 5806 5805
5865 5865 5865 5865 5864 5863 5862 5861 5860 5859 5858 5857 5856 5855 5853 5851 5849 5848 5846 5844 5842 5840 5838 5836 5834 5832 5829 5827 5824 5822 5819 5816 5815 5813 5811 5809 5807 5805 5804 5802 5800 5799 5798
5859 5859 5859 5859 5858 5857 5856 5856 5855 5853 5852 5851 5850 5849 5847 5846 5843 5841 5840 5838 5835 5833 5831 5830 5827 5825 5823 5820 5818 5815 5812 5810 5808 5805 5804 5802 5800 5798 5796 5795 5793 5792 5791
5853 5853 5853 5853 5852 5851 5850 5849 5848 5847 5846 5845 5844 5843 5841 5839 5837 5835 5833 5831 5829 5826 5824 5823 5820 5818 5816 5814 5811 5809 5806 5803 5801 5799 5796 5794 5792 5791 5789 5788 5787 5785 5784
5846 5846 5846 5846 5845 5845 5844 5843 5842 5841 5840 5839 5838 5836 5835 5832 5830 5828 5825 5823 5821 5819 5817 5815 5813 5811 5809 5806 5804 5802 5799 5797 5794 5792 5790 5788 5786 5784 5782 5781 5779 5778 5777
5841 5840 5840 5839 5839 5838 5837 5836 5835 5834 5834 5833 5831 5830 5828 5826 5823 5820 5818 5816 5814 5812 5810 5808 5806 5804 5801 5799 5797 5795 5793 5790 5788 5785 5783 5781 5779 5776 5775 5773 5772 5771 5770
5833 5833 5833 5832 5831 5831 5830 5829 5828 5827 5827 5826 5824 5823 5821 5819 5816 5814 5812 5809 5807 5805 5802 5800 5798 5796 5794 5793 5791 5789 5786 5784 5781 5779 5776 5774 5772 5769 5767 5766 5764 5763 5762
5826 5826 5826 5825 5824 5823 5823 5822 5821 5820 5819 5819 5817 5816 5814 5812 5809 5807 5805 5802 5799 5797 5795 5793 5791 5789 5787 5786 5784 5782 5780 5778 5775 5772 5770 5767 5765 5762 5760 5758 5757 5755 5754
5818 5818 5818 5817 5816 5816 5815 5814 5814 5813 5812 5812 5811 5809 5807 5804 5802 5800 5797 5795 5793 5791 5789 5786 5784 5783 5781 5779 5778 5776 5773 5771 5768 5766 5763 5760 5757 5755 5753 5751 5750 5748 5747
5810 5810 5810 5809 5809 5808 5807 5807 5806 5805 5805 5804 5803 5801 5800 5798 5796 5793 5791 5788 5786 5784 5782 5780 5778 5776 5774 5772 5771 5769 5766 5764 5761 5758 5755 5753 5750 5748 5745 5744 5742 5741 5739
5801 5801 5801 5800 5800 5800 5800 5799 5798 5797 5796 5795 5795 5794 5792 5791 5788 5786 5784 5781 5779 5777 5775 5773 5771 5769 5767 5765 5763 5761 5759 5756 5754 5751 5748 5745 5743 5740 5738 5736 5734 5733 5731
5791 5791 5792 5792 5792 5792 5791 5791 5790 5789 5788 5788 5787 5786 5784 5783 5781 5778 5776 5774 5772 5770 5768 5766 5764 5761 5760 5758 5756 5754 5752 5749 5747 5744 5741 5738 5736 5733 5730 5729 5727 5725 5724
5780 5781 5781 5782 5782 5782 5782 5782 5782 5782 5781 5779 5779 5777 5776 5775 5773 5771 5769 5766 5764 5762 5760 5758 5756 5754 5752 5750 5748 5747 5744 5742 5739 5737 5734 5731 5728 5726 5723 5721 5719 5718 5716
5770 5771 5771 5772 5773 5773 5773 5773 5774 5773 5772 5771 5770 5769 5768 5766 5764 5763 5760 5758 5756 5754 5752 5750 5748 5747 5745 5743 5741 5739 5737 5734 5732 5729 5726 5724 5721 5719 5716 5714 5712 5710 5708
5762 5762 5763 5763 5764 5764 5764 5764 5765 5765 5764 5762 5762 5761 5760 5758 5756 5754 5753 5751 5749 5747 5745 5743 5741 5739 5738 5736 5734 5732 5730 5727 5724 5722 5719 5716 5713 5711 5708 5706 5704 5702 5700
5752 5753 5754 5755 5755 5755 5755 5755 5756 5755 5755 5754 5753 5752 5751 5750 5748 5747 5745 5743 5741 5740 5738 5736 5734 5732 5731 5729 5727 5725 5722 5719 5716 5714 5711 5708 5705 5703 5701 5698 5696 5694 5692
5742 5743 5744 5745 5745 5746 5746 5746 5746 5746 5745 5745 5744 5743 5742 5741 5740 5738 5737 5735 5733 5731 5729 5728 5727 5725 5723 5721 5719 5717 5714 5711 5708 5705 5703 5700 5697 5695 5693 5690 5688 5686 5684
5732 5733 5734 5735 5735 5736 5736 5736 5736 5736 5736 5736 5735 5734 5733 5732 5731 5730 5728 5726 5724 5722 5721 5720 5718 5717 5715 5713 5711 5708 5706 5703 5700 5697 5695 5692 5689 5687 5685 5682 5680 5678 5676
5723 5723 5724 5725 5725 5726 5726 5727 5727 5727 5727 5726 5726 5725 5724 5723 5722 5721 5719 5718 5716 5714 5713 5711 5710 5709 5707 5705 5702 5700 5697 5695 5692 5689 5686 5684 5681 5679 5676 5674 5672 5669 5668
5712 5713 5714 5714 5715 5716 5716 5716 5717 5717 5717 5716 5715 5715 5714 5714 5713 5712 5710 5709 5708 5706 5705 5703 5702 5700 5698 5696 5694 5692 5689 5687 5684 5681 5679 5676 5673 5671 5669 5666 5664 5661 5659
5702 5703 5704 5704 5705 5705 5706 5706 5706 5706 5706 5706 5706 5705 5705 5704 5703 5702 5702 5701 5699 5698 5697 5695 5694 5692 5690 5688 5686 5684 5681 5679 5676 5673 5671 5668 5666 5663 5661 5658 5656 5653 5651